This is the latest recevied weather packets stored in our database for station/object OH6GKW. If no packets are shown the sender has not sent any weather packets the latest 10 day(s).
| Time | Temp. | Humidity | Pressure | Rain* | Wind** | Luminosity | Snow |
|---|---|---|---|---|---|---|---|
| 1788339826 | 16.67° C | 73% | 1003.2 hPa | 0.25 mm | - | 120 W/m² | - |
| 1788339514 | 16.67° C | 74% | 1003.2 hPa | 0.25 mm | - | 568 W/m² | - |
| 1788339211 | 16.67° C | 74% | 1003.2 hPa | 0.25 mm | - | 523 W/m² | - |
| 1788338934 | 16.67° C | 75% | 1003.2 hPa | 0.25 mm | - | 544 W/m² | - |
| 1788338607 | 16.67° C | 77% | 1003.2 hPa | 0.25 mm | - | 533 W/m² | - |
| 1788338322 | 16.67° C | 75% | 1003.2 hPa | 0.25 mm | - | 538 W/m² | - |
| 1788338016 | 16.11° C | 77% | 1003.2 hPa | 0.25 mm | - | 540 W/m² | - |
| 1788337725 | 16.11° C | 76% | 1003.1 hPa | 0.25 mm | - | 507 W/m² | - |
| 1788337419 | 16.11° C | 78% | 1003.1 hPa | 0.25 mm | - | 540 W/m² | - |
| 1788337111 | 16.11° C | 79% | 1003.1 hPa | 0.25 mm | - | 556 W/m² | - |
| 1788336835 | 15.56° C | 79% | 1003.1 hPa | 0.25 mm | - | 535 W/m² | - |
| 1788336529 | 15.56° C | 80% | 1003.1 hPa | 0.25 mm | - | 88 W/m² | - |
| 1788336227 | 15.56° C | 83% | 1003.1 hPa | 0.25 mm | - | 143 W/m² | - |
| 1788335918 | 15.56° C | 86% | 1003 hPa | 0.25 mm | - | 558 W/m² | - |
| 1788335614 | 15.56° C | 89% | 1003 hPa | 0.25 mm | - | 530 W/m² | - |
| 1788335325 | 15.56° C | 89% | 1003 hPa | 0.25 mm | - | 560 W/m² | - |
| 1788335014 | 15° C | 89% | 1002.9 hPa | 0.25 mm | - | 570 W/m² | - |
| 1788334726 | 15° C | 89% | 1002.9 hPa | 0.25 mm | - | 567 W/m² | - |
| 1788334422 | 15° C | 90% | 1002.9 hPa | 0.25 mm | - | 523 W/m² | - |
| 1788334111 | 15° C | 91% | 1002.9 hPa | 0.25 mm | - | 447 W/m² | - |
| 1788333836 | 15° C | 96% | 1002.9 hPa | 0.25 mm | - | 447 W/m² | - |
| 1788333532 | 15° C | 97% | 1002.9 hPa | 0.25 mm | - | 252 W/m² | - |
| 1788333225 | 14.44° C | 98% | 1002.9 hPa | 0.25 mm | - | 91 W/m² | - |
| 1788332919 | 14.44° C | 98% | 1002.9 hPa | 0.25 mm | - | 403 W/m² | - |
| 1788332616 | 13.89° C | 98% | 1002.9 hPa | 0.25 mm | - | 373 W/m² | - |
* Rain since midnight (hover to see other rain measurements)
** Current wind speed in m/s (hover to see current wind gust speed)